Temperature
7 8 8 7 7 7 8 8 8 8 8 8 8 8 8 8 8 8 9 10 11 11 12 12 12 13 13 14 14 14 14 14 15 15 15 16 16 16 16 16 16 16 16
7 7 8 7 7 7 7 7 8 8 7 7 7 8 8 8 7 7 7 8 8 9 10 10 11 12 12 12 13 14 14 14 14 15 16 16 15 15 16 16 16 16 16
7 7 7 7 7 7 7 7 7 7 7 7 7 7 7 7 7 7 7 7 7 7 7 8 9 10 11 11 11 12 13 13 14 15 15 15 14 15 15 16 16 16 16
7 7 7 7 7 7 7 7 6 6 5 5 5 5 5 5 5 5 6 6 6 6 6 6 7 8 9 10 10 11 11 12 13 14 14 14 14 14 15 15 15 16 16
7 7 7 7 7 6 5 5 5 4 4 4 4 4 4 4 4 4 4 5 5 5 5 5 5 6 6 7 9 9 10 10 12 13 13 14 14 14 14 15 15 15 16
7 7 7 7 7 6 5 5 4 4 4 4 4 4 4 4 4 4 4 4 4 4 3 4 5 5 5 6 6 7 9 10 11 11 12 13 13 13 14 14 14 15 15
7 7 7 7 6 6 5 5 4 4 4 4 4 4 4 4 4 4 4 4 3 3 3 3 3 3 4 4 5 6 7 8 9 9 11 12 12 12 13 13 14 14 15
7 6 6 6 6 5 5 5 4 4 4 4 4 4 4 4 4 4 4 3 3 3 2 3 3 3 3 4 4 5 6 7 8 8 9 10 11 11 12 12 13 14 14
6 6 6 5 5 5 5 4 4 4 4 4 4 4 4 4 4 4 3 3 2 2 2 2 2 2 2 3 3 4 5 6 6 6 8 8 9 10 11 11 12 13 13
5 6 5 5 4 4 4 4 4 4 4 4 4 4 4 3 3 3 3 2 2 1 1 2 1 2 2 3 3 3 4 4 4 5 6 6 7 9 10 10 11 11 12
4 5 5 4 4 4 3 4 4 4 3 3 3 3 3 3 2 2 2 2 1 1 1 1 0 1 2 2 2 3 3 3 3 4 4 5 6 7 8 9 10 10 11
4 4 4 3 3 3 3 3 3 3 3 3 2 2 2 1 1 1 1 1 1 1 0 0 0 0 1 1 1 2 1 1 2 2 3 4 5 5 5 7 9 9 10
3 3 3 3 3 3 2 2 2 2 2 1 1 1 0 0 -0 -0 -1 -1 -1 -1 -1 -1 -1 -2 -2 -1 -0 -0 -0 0 0 1 2 3 4 4 4 5 7 9 9
3 3 3 2 3 2 2 2 1 1 0 -0 -1 -1 -1 -2 -2 -2 -3 -4 -4 -4 -4 -4 -4 -4 -4 -3 -3 -2 -2 -2 -1 -0 1 2 3 4 4 4 5 7 8
3 3 2 3 2 2 2 1 1 0 -1 -1 -2 -2 -3 -4 -4 -5 -5 -6 -6 -6 -6 -6 -6 -5 -5 -5 -4 -4 -3 -3 -2 -2 -1 0 2 3 3 3 3 4 6
3 2 2 2 2 1 1 1 -0 -1 -1 -2 -3 -4 -4 -5 -6 -7 -7 -7 -7 -7 -8 -8 -7 -7 -7 -6 -6 -5 -5 -4 -3 -3 -2 -1 1 2 2 2 2 3 4
2 2 2 2 1 1 1 0 -1 -1 -2 -3 -4 -5 -6 -6 -7 -8 -8 -8 -8 -8 -8 -8 -8 -8 -8 -7 -7 -6 -6 -5 -4 -3 -3 -2 -1 -0 1 1 1 1 3
2 2 2 1 1 0 0 -0 -1 -2 -2 -3 -4 -5 -6 -7 -7 -8 -8 -9 -9 -9 -9 -9 -9 -9 -9 -9 -8 -7 -7 -6 -5 -4 -4 -3 -2 -2 -1 -1 0 1 2
2 2 1 1 0 0 -0 -1 -1 -2 -3 -4 -4 -5 -6 -7 -8 -9 -9 -10 -10 -10 -10 -10 -10 -10 -10 -10 -9 -9 -8 -7 -6 -5 -4 -4 -3 -3 -2 -2 -1 0 1
2 1 1 -0 -0 -0 -1 -1 -2 -3 -3 -4 -5 -6 -6 -8 -9 -10 -11 -11 -11 -11 -11 -11 -11 -11 -11 -10 -10 -10 -9 -8 -7 -5 -5 -4 -4 -3 -3 -3 -3 -1 -0
1 1 0 -1 -1 -1 -2 -2 -3 -3 -4 -5 -6 -7 -8 -9 -9 -10 -11 -11 -12 -12 -12 -12 -12 -11 -11 -11 -11 -10 -9 -8 -6 -5 -5 -5 -4 -4 -4 -4 -4 -3 -1
1 1 -0 -1 -2 -2 -2 -3 -3 -4 -5 -7 -8 -8 -9 -9 -10 -11 -12 -12 -12 -12 -12 -12 -12 -12 -12 -11 -12 -11 -10 -8 -5 -6 -6 -6 -5 -5 -5 -5 -4 -3 -2
1 0 -0 -1 -2 -2 -3 -3 -4 -5 -6 -7 -8 -8 -9 -10 -11 -12 -12 -12 -12 -12 -12 -12 -12 -13 -12 -12 -12 -12 -12 -10 -10 -9 -7 -6 -6 -6 -6 -5 -5 -4 -3
1 0 -1 -1 -2 -3 -3 -4 -5 -6 -7 -7 -8 -9 -10 -11 -11 -12 -12 -12 -12 -12 -12 -13 -13 -13 -13 -13 -13 -12 -12 -12 -12 -10 -8 -7 -7 -7 -6 -6 -5 -4 -4
1 -0 -1 -2 -2 -3 -3 -4 -5 -6 -7 -7 -9 -10 -11 -11 -11 -12 -12 -12 -12 -12 -12 -13 -13 -13 -13 -13 -13 -13 -13 -12 -12 -12 -10 -9 -8 -7 -6 -6 -5 -5 -4
1 -0 -1 -2 -2 -3 -4 -4 -5 -6 -7 -8 -9 -11 -11 -11 -11 -11 -12 -12 -12 -12 -12 -12 -13 -13 -13 -13 -13 -13 -13 -13 -12 -11 -10 -10 -8 -7 -7 -6 -5 -5 -4
Wind_Speed
13 19 22 24 24 24 25 25 25 25 26 26 27 27 28 28 28 28 28 29 29 29 29 28 28 27 27 27 27 27 27 27 26 25 25 20 16 14 14 13 10 11 9
14 17 20 22 22 23 24 24 24 25 25 26 27 27 28 28 28 28 28 28 28 28 28 28 28 28 27 27 26 26 27 27 27 27 26 21 14 12 14 14 12 12 10
14 16 18 22 22 22 24 24 25 25 25 26 27 28 28 29 29 28 28 28 27 27 27 27 28 28 27 27 26 26 26 26 27 27 25 17 14 12 13 15 15 15 15
14 15 18 22 21 22 23 24 24 25 25 25 26 27 27 28 28 28 29 29 28 27 27 27 27 27 27 27 26 26 26 26 27 26 18 17 17 15 16 17 17 17 16
13 15 18 22 21 21 22 23 23 23 23 24 25 26 26 27 27 27 27 27 27 27 27 27 27 27 27 27 26 26 26 26 27 21 17 17 17 18 20 20 19 18 18
14 16 18 21 21 21 21 22 22 23 23 24 25 26 26 27 27 27 27 27 27 27 26 27 27 27 26 26 26 26 26 26 25 17 17 17 16 19 24 24 22 20 19
13 15 17 20 20 20 21 22 22 22 23 24 25 26 26 27 27 27 27 27 27 27 27 26 26 26 26 26 26 26 26 27 22 18 16 17 16 21 24 25 24 22 20
12 14 15 17 18 18 19 21 20 21 22 23 24 25 26 26 26 26 26 27 27 27 27 27 27 26 26 26 26 25 25 25 22 18 16 16 17 21 24 26 26 25 22
10 13 14 15 15 14 15 19 19 19 21 21 22 24 25 24 25 25 25 26 27 27 27 27 27 27 27 26 25 25 25 25 20 15 17 14 16 22 25 26 26 26 25
9 11 13 14 14 14 12 15 16 16 18 19 19 22 23 22 22 22 23 25 25 25 26 26 26 27 27 25 23 23 24 21 15 17 15 14 19 23 25 26 26 26 26
8 9 11 13 14 13 12 12 13 14 17 18 19 22 21 20 20 21 23 24 25 24 24 24 25 25 25 22 21 23 21 14 18 15 14 17 22 24 25 26 27 27 26
9 9 10 12 12 13 11 11 12 14 15 17 18 20 19 19 18 20 22 22 23 24 23 22 24 22 19 17 19 20 15 17 16 14 15 20 23 24 25 26 27 27 26
7 8 9 10 11 12 11 11 11 12 13 15 16 18 18 17 16 17 17 18 19 20 18 20 19 17 18 17 18 17 17 17 15 15 17 21 24 25 26 26 26 26 26
6 8 9 9 11 12 12 11 12 12 12 13 14 16 16 15 15 16 16 17 17 16 18 18 17 19 20 19 19 18 18 16 16 16 18 22 24 26 26 25 25 25 25
6 7 8 9 12 12 12 11 12 12 12 14 13 14 16 15 15 16 16 16 17 16 17 18 18 19 19 18 18 18 18 19 20 19 17 21 24 25 25 24 23 24 24
4 6 7 9 11 12 12 12 12 12 13 13 12 14 15 15 16 16 17 17 17 17 17 18 19 19 17 17 18 19 19 20 19 19 19 20 22 23 22 22 22 22 22
3 4 7 9 11 12 12 12 11 11 13 12 12 13 15 16 16 17 16 16 17 18 20 19 19 17 16 16 17 18 18 19 19 20 20 18 18 19 19 19 18 19 21
1 4 6 8 10 12 12 12 11 12 12 11 12 13 15 17 17 18 16 17 18 19 18 17 15 15 15 15 16 15 15 17 19 20 19 18 16 15 15 15 16 19 20
1 3 5 8 10 12 12 11 11 11 11 11 12 13 16 17 18 18 17 17 19 18 17 16 14 15 16 17 16 16 16 16 16 18 17 16 15 14 13 13 16 18 19
1 3 5 7 10 11 10 10 10 11 11 11 12 14 17 17 18 18 16 18 18 16 14 15 17 17 16 16 16 17 17 17 16 15 14 12 12 13 12 12 14 14 17
2 2 5 7 9 9 8 8 9 10 9 10 11 15 16 17 18 18 16 17 17 14 15 17 17 18 16 15 16 17 17 17 15 12 9 9 11 10 10 13 13 13 13
2 2 5 7 8 9 8 9 9 10 9 10 11 13 15 17 17 16 17 16 17 15 17 17 17 15 15 14 14 16 13 13 8 7 10 11 10 8 11 14 14 14 14
2 2 4 6 7 8 10 9 9 8 8 8 10 11 15 17 17 17 18 18 18 16 15 18 17 18 16 15 13 10 9 8 13 10 12 9 9 11 12 12 13 14 15
3 0 3 5 6 8 9 9 11 10 10 12 10 11 16 16 16 17 18 19 19 17 17 17 17 16 17 15 13 12 12 13 10 9 9 11 14 13 13 12 12 13 14
3 1 2 4 5 7 9 10 11 10 9 10 11 13 13 15 15 17 18 19 19 18 18 19 19 17 14 15 14 13 14 13 14 13 15 14 12 12 12 13 12 11 13
4 2 2 4 5 7 9 10 10 11 12 13 13 13 12 12 14 17 19 19 19 18 18 18 17 17 15 15 14 13 13 12 12 12 13 15 14 14 14 12 12 10 10
Wind_Direction
347 346 348 357 4 8 11 12 13 13 13 12 13 13 12 12 10 10 8 6 4 2 1 1 1 360 359 358 356 354 351 351 351 348 342 329 314 310 308 304 287 269 251
342 347 349 1 5 9 12 12 13 13 13 13 12 12 11 10 8 8 7 4 2 0 359 358 357 356 355 355 354 352 349 348 347 345 337 322 306 304 305 303 295 283 282
355 353 354 5 7 10 12 12 12 12 12 12 12 10 9 8 6 6 5 3 1 359 358 356 354 353 352 351 350 349 348 347 345 341 330 323 320 311 309 305 298 283 274
5 1 1 6 8 10 12 11 11 11 11 11 11 9 8 7 4 4 3 360 359 358 356 355 353 350 349 348 347 346 345 344 343 335 329 330 325 321 321 311 301 290 279
15 9 6 8 9 11 13 12 11 11 11 11 10 9 8 6 3 2 1 358 357 355 354 353 351 348 347 345 344 343 343 342 339 329 331 330 325 324 326 317 308 295 285
20 14 11 11 12 13 14 13 12 11 11 10 8 7 6 4 1 360 359 356 354 353 352 351 348 346 345 343 341 340 340 340 332 330 329 325 322 324 325 320 311 300 287
20 15 14 14 15 15 16 15 12 11 10 8 5 3 2 360 357 355 356 353 351 351 349 348 345 344 342 340 337 336 336 337 329 325 323 319 319 323 323 322 320 309 294
22 17 15 15 15 15 17 15 12 10 8 6 2 360 357 355 353 351 352 349 348 347 345 344 342 341 339 338 335 334 332 332 325 319 319 312 316 322 322 321 321 319 306
24 19 15 12 10 10 13 14 11 10 6 3 360 357 354 351 349 348 348 345 343 342 341 340 338 336 335 333 331 331 330 326 315 316 313 310 318 320 319 318 317 315 315
25 19 13 9 7 3 4 10 7 6 4 360 357 355 352 348 346 343 343 341 338 338 336 335 334 332 331 327 325 327 326 318 317 315 309 308 317 316 314 313 313 314 310
25 18 12 5 3 359 357 359 360 1 1 358 356 354 351 347 343 339 337 336 335 334 332 330 330 328 326 321 322 324 320 316 316 309 305 307 312 311 310 310 309 309 307
19 15 10 2 358 358 357 356 358 359 357 357 353 350 346 342 337 335 332 331 331 330 328 328 327 324 324 321 322 321 316 315 310 305 303 307 308 308 307 306 304 303 301
19 17 10 1 359 1 359 359 358 355 352 349 347 345 341 337 333 332 330 327 327 326 327 325 323 324 321 317 314 313 311 311 306 304 300 303 306 307 305 301 299 298 296
22 16 6 2 3 3 1 358 357 351 346 341 339 340 340 333 329 328 325 323 321 322 322 320 317 317 314 310 309 307 307 306 302 301 296 298 301 303 302 298 296 294 292
22 11 4 1 5 2 360 356 354 348 342 336 334 335 336 330 326 324 320 318 315 316 316 316 313 313 310 308 306 304 304 303 299 295 294 295 297 298 297 296 294 292 291
16 5 0 3 3 359 358 354 349 343 338 333 332 332 332 328 323 320 317 316 313 314 314 310 309 308 306 306 303 303 301 299 295 294 293 293 292 291 292 293 293 293 294
8 357 3 357 356 355 353 350 345 341 336 331 330 329 331 328 324 321 316 315 313 314 312 308 307 305 304 304 302 302 300 297 294 293 292 289 287 285 284 289 294 295 295
340 352 0 353 349 352 350 346 342 337 335 330 330 330 334 332 328 323 318 315 315 314 311 309 307 308 306 305 303 302 299 295 291 291 289 283 280 280 282 286 295 297 296
305 348 352 352 348 347 344 340 336 333 332 332 333 335 336 334 331 326 319 315 317 314 310 308 308 308 306 305 302 301 297 293 290 287 282 278 274 274 278 290 297 295 294
225 343 347 347 347 343 340 337 335 334 334 335 335 336 335 333 332 328 320 320 319 314 311 311 309 306 304 303 302 300 296 291 282 276 274 273 274 272 279 298 299 296 294
217 333 344 344 347 346 343 340 337 334 331 331 332 333 333 333 332 328 324 321 319 314 312 309 308 306 305 305 305 305 301 286 273 267 271 284 279 278 292 298 296 298 296
227 326 336 344 344 348 344 334 328 323 320 322 328 332 333 332 330 326 323 320 317 313 310 309 308 305 303 304 307 309 309 305 271 308 298 282 280 299 300 296 297 293 294
218 326 338 338 338 345 343 335 330 325 324 333 336 333 332 328 325 323 321 319 316 314 310 309 306 301 301 301 295 295 299 301 326 296 286 285 300 302 296 296 293 293 293
187 266 324 330 337 348 347 341 338 333 332 335 333 327 326 325 323 323 322 320 317 314 311 309 305 299 296 293 293 286 279 285 289 299 300 302 297 293 295 294 295 293 290
169 219 316 323 339 351 348 341 335 331 330 329 329 327 327 325 324 325 326 323 320 317 314 311 308 300 293 288 288 288 284 282 272 273 286 294 297 296 295 295 292 290 290
175 209 299 320 346 352 345 338 335 333 332 330 331 329 329 326 326 330 331 328 325 322 318 315 310 303 295 287 284 282 281 280 279 279 284 292 296 298 297 293 288 285 289
Height
1630 1627 1624 1622 1619 1615 1611 1607 1604 1600 1596 1592 1589 1585 1581 1578 1574 1571 1568 1565 1562 1560 1557 1555 1553 1551 1549 1547 1546 1544 1543 1542 1541 1540 1539 1539 1539 1539 1539 1538 1538 1538 1538
1629 1627 1624 1621 1618 1615 1611 1607 1603 1599 1595 1591 1588 1584 1580 1577 1573 1570 1566 1563 1560 1557 1555 1552 1550 1547 1545 1543 1542 1540 1539 1538 1537 1536 1536 1537 1537 1537 1537 1536 1536 1536 1536
1629 1626 1624 1620 1617 1613 1610 1606 1602 1598 1594 1590 1587 1583 1579 1575 1572 1568 1565 1561 1558 1555 1552 1549 1546 1544 1542 1539 1537 1536 1534 1533 1533 1533 1533 1534 1534 1534 1534 1534 1534 1534 1534
1628 1626 1623 1619 1616 1612 1608 1604 1601 1597 1593 1589 1585 1581 1577 1574 1570 1567 1563 1560 1557 1553 1550 1547 1543 1541 1538 1536 1534 1532 1530 1528 1527 1529 1529 1529 1529 1530 1530 1530 1531 1531 1531
1628 1625 1622 1618 1615 1611 1607 1603 1599 1595 1592 1588 1584 1580 1576 1572 1568 1565 1561 1558 1555 1551 1548 1545 1541 1538 1535 1532 1530 1527 1525 1523 1522 1523 1524 1524 1525 1525 1525 1526 1526 1527 1528
1628 1625 1621 1617 1613 1609 1605 1601 1598 1594 1591 1587 1583 1579 1575 1571 1567 1563 1559 1556 1552 1549 1545 1542 1538 1535 1532 1528 1525 1523 1521 1518 1518 1517 1518 1519 1520 1519 1520 1521 1521 1522 1523
1627 1624 1620 1616 1612 1607 1604 1600 1597 1593 1590 1586 1582 1578 1574 1570 1566 1562 1558 1554 1550 1546 1543 1539 1535 1532 1529 1525 1521 1518 1515 1513 1513 1512 1511 1513 1513 1514 1514 1515 1516 1517 1518
1626 1623 1619 1614 1610 1606 1603 1599 1596 1592 1589 1585 1581 1577 1572 1568 1564 1560 1556 1552 1548 1544 1540 1536 1532 1528 1525 1521 1518 1514 1511 1508 1508 1507 1506 1506 1506 1507 1508 1509 1509 1510 1512
1625 1621 1617 1612 1608 1604 1601 1598 1595 1591 1587 1583 1579 1575 1571 1567 1563 1559 1554 1550 1546 1541 1537 1532 1528 1524 1520 1517 1513 1510 1507 1504 1503 1501 1500 1499 1499 1499 1501 1502 1503 1504 1505
1623 1620 1615 1611 1606 1603 1600 1596 1593 1589 1585 1581 1577 1573 1569 1565 1561 1556 1552 1547 1542 1538 1533 1529 1525 1520 1516 1513 1509 1505 1502 1500 1498 1495 1494 1493 1491 1492 1493 1495 1495 1497 1498
1622 1618 1614 1609 1605 1602 1599 1595 1591 1588 1584 1580 1576 1572 1567 1563 1558 1554 1549 1544 1539 1534 1529 1525 1520 1516 1512 1508 1504 1501 1498 1495 1493 1490 1488 1486 1485 1484 1485 1486 1487 1489 1490
1621 1617 1612 1607 1603 1600 1598 1594 1591 1587 1583 1579 1574 1569 1565 1560 1555 1550 1545 1540 1535 1530 1525 1521 1516 1511 1506 1503 1499 1496 1493 1490 1487 1485 1483 1480 1479 1478 1477 1478 1479 1481 1483
1619 1615 1610 1605 1602 1599 1596 1593 1589 1585 1580 1576 1571 1566 1561 1556 1551 1545 1540 1535 1530 1525 1520 1515 1511 1506 1502 1498 1493 1490 1487 1484 1481 1478 1476 1474 1472 1471 1470 1470 1471 1473 1475
1617 1613 1609 1604 1601 1598 1595 1591 1587 1582 1577 1572 1567 1561 1556 1551 1546 1541 1536 1531 1526 1520 1515 1511 1506 1501 1497 1493 1489 1484 1481 1478 1475 1472 1469 1467 1465 1464 1463 1463 1464 1465 1467
1615 1611 1607 1603 1600 1596 1593 1589 1584 1579 1574 1569 1563 1558 1553 1547 1542 1537 1532 1526 1522 1516 1511 1506 1501 1496 1492 1488 1483 1479 1475 1472 1468 1466 1463 1460 1458 1457 1456 1456 1456 1457 1459
1612 1609 1605 1601 1598 1594 1590 1586 1581 1576 1571 1566 1561 1555 1549 1544 1538 1533 1528 1523 1518 1512 1506 1501 1496 1491 1486 1482 1477 1473 1468 1465 1462 1459 1456 1453 1451 1450 1449 1449 1449 1450 1451
1609 1606 1603 1599 1595 1592 1588 1583 1579 1574 1568 1563 1557 1551 1545 1540 1535 1529 1524 1519 1514 1508 1502 1496 1491 1486 1481 1476 1471 1466 1462 1458 1455 1453 1450 1447 1445 1443 1442 1441 1441 1441 1442
1606 1603 1600 1597 1593 1589 1585 1581 1576 1571 1565 1560 1554 1548 1543 1537 1531 1526 1520 1515 1509 1503 1498 1492 1487 1481 1476 1470 1465 1460 1456 1452 1448 1446 1443 1440 1439 1437 1436 1435 1433 1433 1433
1603 1601 1598 1594 1590 1587 1583 1578 1573 1568 1562 1557 1552 1546 1540 1534 1528 1522 1516 1511 1505 1499 1494 1489 1483 1477 1471 1465 1460 1454 1449 1445 1441 1438 1436 1434 1433 1432 1431 1429 1426 1425 1425
1601 1598 1595 1591 1587 1583 1580 1575 1571 1566 1560 1555 1549 1543 1537 1530 1524 1518 1512 1507 1501 1495 1490 1485 1479 1473 1467 1461 1455 1449 1443 1438 1435 1432 1430 1429 1427 1426 1425 1423 1420 1419 1419
1598 1596 1592 1588 1584 1580 1576 1572 1567 1562 1556 1550 1545 1539 1533 1527 1521 1515 1509 1503 1497 1492 1486 1480 1475 1469 1463 1458 1451 1444 1438 1433 1429 1427 1426 1424 1423 1422 1419 1417 1415 1413 1412
1596 1593 1589 1585 1581 1577 1574 1569 1564 1558 1552 1547 1542 1536 1530 1524 1517 1511 1506 1500 1494 1488 1482 1477 1471 1465 1459 1455 1450 1442 1435 1430 1424 1423 1421 1419 1418 1416 1414 1411 1409 1408 1406
1593 1590 1586 1583 1579 1575 1571 1567 1561 1556 1551 1546 1539 1532 1527 1521 1515 1509 1503 1497 1491 1485 1479 1473 1467 1461 1455 1451 1448 1444 1437 1429 1425 1420 1418 1416 1414 1411 1408 1406 1404 1402 1401
1589 1586 1583 1580 1576 1573 1569 1564 1558 1553 1548 1542 1535 1529 1523 1518 1512 1506 1501 1494 1488 1482 1475 1468 1462 1457 1451 1446 1443 1440 1437 1432 1428 1420 1415 1413 1410 1407 1404 1401 1398 1397 1395
1586 1583 1580 1577 1574 1570 1566 1561 1555 1550 1545 1539 1532 1526 1521 1515 1510 1504 1498 1492 1485 1478 1471 1464 1457 1451 1446 1442 1438 1435 1432 1429 1425 1421 1414 1409 1406 1402 1399 1396 1393 1392 1390
1582 1580 1577 1574 1572 1568 1563 1558 1553 1548 1542 1535 1529 1523 1518 1513 1507 1502 1495 1489 1483 1476 1468 1461 1453 1447 1441 1437 1433 1430 1427 1424 1421 1418 1413 1407 1402 1398 1395 1392 1389 1388 1386